Погода в Костополе

Украина / Ровненская область     50°52′36″N   26°27′23″E
темп.,
°C
ветер,
м/с
пор.,
м/с
влажн.,
%
обл.,
%
осадки,
мм/ч
давл.,
гПа
погр.,
м
23 апреля, пт
пт2300:00+5зюз4984100 0.0 1016333
03:00+3з4986100 0.0 1017247
06:00+1з398593 0.0 1018210
09:00+5зсз586815 0.0 1018612
12:00+9зсз694694 0.0 10182010
15:00+9з7104597 0.1 10172019
18:00+8сз895839 0.3 10181374
21:00+4з377077 0.3 1019140
24 апреля, сб
сб2400:00+3з4108517 0.3 1019293
03:00+3зсз61175100 0.3 1019567
06:000з511762 0.0 1020327
09:00+3зсз611585 0.0 10211196
12:00+6зсз71145100 0.1 10212283
15:00+8зсз7104099 0.1 10202492
18:00+8зсз574472 0.0 10201795
21:00+4з336093 0.0 102157
25 апреля, вс
вс2500:00+3юз3572100 0.0 102075
03:00+4зюз61073100 0.0 1018412
06:00+3з5997100 1.3 1018874
09:00+2сз687987 1.3 1020911
12:00+5сз6747100 0.1 10201937
15:00+7сз5645100 0.1 10192130
18:00+7зсз574886 0.2 10191871
21:00+3зсз347088 0.1 102082
26 апреля, пн
пн2600:00+1зюз36755 0.0 102093
03:000зюз38815 0.0 1019154
06:00−1з4118810 0.1 1019304
09:00+3зсз586517 0.1 1019989
12:00+6зсз6838100 0.1 10182353
15:00+7зсз6739100 0.1 10172417
18:00+7зсз4642100 0.0 10161866
21:00+3юз2262100 0.0 101612
27 апреля, вт
вт2700:00+3юз3563100 0.0 1016122
03:000зюз36879 0.1 1016101
06:00−1зюз36915 0.0 1016106
09:00+5зсз34655 0.0 1016494
12:00+8з34475 0.0 10151673
15:00+11юз334148 0.0 10141790
18:00+11ююв2343100 0.0 10131644
21:00+6вюв4660100 0.0 101373